Regional Weather Roundup
Issued by NWS

Home | Current Version | Previous Version | Graphics & Text | Print | Product List | Glossary Off
Versions: 1 2 3 4 5 6 7 8 9 10 11 12 13 14 15 16 17 18 19 20 21 22 23 24 25 26 27 28 29 30 31 32 33 34 35 36 37 38 39 40 41 42 43 44 45 46 47 48 49 50

000
ASUS43 KTOP 201459
RWRKS

WEATHER ROUNDUP FOR KANSAS
NATIONAL WEATHER SERVICE GOODLAND KS
1000 AM CDT FRI OCT 20 2017

NOTE:  "FAIR" INDICATES FEW OR NO CLOUDS BELOW 12,000 FEET WITH NO
SIGNIFICANT WEATHER AND/OR OBSTRUCTIONS TO VISIBILITY.

KSZ001>006-013>018-027>032-041>047-201600-
NORTHWEST KANSAS

CITY           SKY/WX    TMP DP  RH WIND       PRES   REMARKS
GOODLAND       CLOUDY    57  52  83 S18       29.72F
HAYS           SUNNY     63  53  70 S26G35    29.83F
HILL CITY      SUNNY     61  52  72 S14G29    29.81F
RUSSELL        SUNNY     63  56  78 S23G37    29.85F
$$

KSZ061>065-074>080-084>089-201600-
SOUTHWEST KANSAS

CITY           SKY/WX    TMP DP  RH WIND       PRES   REMARKS
DODGE CITY     SUNNY     63  53  70 S24G33    29.86F
ELKHART          N/A     59  52  78 S10         N/A
GARDEN CITY    SUNNY     63  51  65 S22G29    29.81F
GREAT BEND     SUNNY     64  55  72 S25       29.88F
LIBERAL        SUNNY     64  53  67 S23G31    29.86S
$$

KSZ066>073-081>083-090>101-201600-
SOUTHEAST KANSAS

CITY           SKY/WX    TMP DP  RH WIND       PRES   REMARKS
CHANUTE        CLOUDY    64  56  75 S12       30.08F
COFFEYVILLE    CLOUDY    63  56  78 S13       30.08F
HUTCHINSON     MOSUNNY   63  56  78 S20       29.95F
MEDICINE LODGE   N/A     63  55  75 S13G23    29.93F
NEWTON         SUNNY     62  55  77 S18G28    29.98F
PARSONS        MOSUNNY   64  55  72 S9        30.10S
WICHITA INTL   CLOUDY    66  59  78 S21G30    29.97F
WICHITA JABRA  MOSUNNY   63  57  81 S15G29    29.99F
WICHITA MCCONL SUNNY     63  55  75 S17       29.99F
WINFIELD       SUNNY     65  59  81 S14G24    30.03S
$$

KSZ007>012-019>026-033>040-048>060-102>105-201600-
NORTHEAST KANSAS

CITY           SKY/WX    TMP DP  RH WIND       PRES   REMARKS
CONCORDIA      PTSUNNY   65  55  70 S21G35    29.90F
EMPORIA        SUNNY     60  53  77 S21G29    30.02F
LAWRENCE       PTSUNNY   60  54  80 SE12      30.06S
MANHATTAN      MOSUNNY   65  55  70 S13       29.96F
OLATHE IND     CLOUDY    60  53  77 S16G24    30.08F
OLATHE EXE     CLOUDY    60  54  80 S12G21    30.08F
SALINA         PTSUNNY   68  57  68 S22G29    29.93F
TOPEKA BILLARD MOSUNNY   66  56  70 S14G25    30.02F
TOPEKA FORBES  MOSUNNY   65  56  72 S14       30.03F
$$




USA.gov is the U.S. government's official web portal to all federal, state and local government web resources and services.